DECAYED

STARLINK-1987, 47583 (Decayed)

Orbit data source: Space-Track

STARLINK-1987, 47583 was a payload satellite owned by SpaceX/Seattle (US) in LEO that was launched on Thu, 04 Feb 2021 UTC via an FALCON 9 launch vehicle from the Air Force Eastern Test Range (AFETR). Payload-class satellites include a variety of spacecraft equipped with specific instruments for various scientific and technological missions. These include communications satellites like Starlink; space stations such as the ISS; scientific satellites like the Hubble; Earth observation satellites from companies like Planet Labs, Umbra, and HawkEye 360; GPS; miniature CubeSats for education and research; and military/defense satellites.

Not visible in the next 10 days
Identifier
47583, 2021-009AM
Orbit
Decayed
Country
Flag of USUS
Related business
Manufacturer
SpaceX/Seattle
Mission
Decayed Commercial Communications
Bus & Motor
STARLINK, Unknown motor
Mass
260 kg wet, ~248 kg dry
Launch date (UTC)
2021-02-04 (5 years ago)
Launch vehicle
FALCON 9
Launch site
Air Force Eastern Test Range (AFETR)
Object type
Payload
Rocket body
Debris
Shape & HBR
Box + 1 Pan, 10.1 m
Radar Cross Section
13.562 m², Large (>1 m²)

Expand to show TLE details & history
Last TLE update: 1 year ago

TLE from 1 year ago
0 STARLINK-1987
1 47583U 21009AM  25032.92632406  .17635550  12428-4  71753-3 0  9992
2 47583  53.0298 343.9608 0002947 216.7197 252.6036 16.43844684221506
Epoch: 2025-02-01T22:13Z
TLE epoch observation values (Epoch: 2025-02-01T22:13:54.398Z)
Latitude
49.10056°
Longitude
-1.65191°
Altitude
161.726 km
Speed
7.815 km/s
True Right ascension
06h 56m 46s
True Declination
48° 54' 53"
Sunlit
Object was in full shadow at epoch
Visualization orbit readout
Latitude
Unknown
Longitude
Unknown
Altitude
Unknown
Speed
Unknown
Apparent Right ascension
Unknown
Apparent Declination
Unknown
Sunlit
N/A
Visualization observer readout
Local Sidereal Time
21:25:55
Azimuth
Unknown
Elevation
Unknown
Doppler factor
Unknown
Orbital elements
Apogee altitude
157.811 km
Perigee altitude
153.96 km
Semi-major axis
6,534.023 km
Eccentricity
0.00029
Inclination
53.0298°
RAAN
343.9608°
Arg. of periapsis
216.7197°
True anomaly
252.57138°
Mean anomaly
252.6036°
Eccentric anomaly
252.58749°
Mean motion
4.10934 °/min
Orbital period
87.61 mins
BSTAR
0.00071753
Loading maneuver chart data...
Computing Atmospheric mass density...

Documentation

Showing up to 5 results
|